• MPC Preparation (Info)

  • MPEC 2023-P19 : 2023 OG6

    The following Minor Planet Electronic Circular may be linked-to from your own Web pages, but must not otherwise be redistributed electronically.

    A form allowing access to any MPEC is at the bottom of this page.


    Read MPEC 2023-P18 Read MPEC 2023-P20


    M.P.E.C. 2023-P19                                Issued 2023 August 5, 01:22 UT
    
         The Minor Planet Electronic Circulars contain information on unusual
             minor planets, routine data on comets and natural satellites,
             and occasional editorial announcements.  They are published
        on behalf of Division F of the International Astronomical Union by the
              Minor Planet Center, Smithsonian Astrophysical Observatory,
                              Cambridge, MA 02138, U.S.A.
    			  
                 Prepared using the Tamkin Foundation Computer Network
    
                                  MPC@CFA.HARVARD.EDU
                URL https://www.minorplanetcenter.net/    ISSN 1523-6714
    
                                    2023 OG6                                 
    
    
    Observations:
         K23O06G* C2023 07 27.43583821 22 10.945-27 43 39.20         21.13wXEP019F51
         K23O06G  C2023 07 27.44621521 22 14.476-27 42 43.60         21.11wXEP019F51
         K23O06G  C2023 07 27.45658921 22 18.020-27 41 47.31         20.87wXEP019F51
         K23O06G  C2023 07 27.53474221 22 44.482-27 34 42.15         20.39GVEP019F51
         K23O06G  V2023 07 28.20051621 26 57.36 -26 33 28.6                WEP019247
         K23O06G  v2023 07 28.2005161 289.14670  -30.52631   1710           EP019247
         K23O06G  V2023 07 28.21445621 27 01.89 -26 32 14.7                WEP019247
         K23O06G  v2023 07 28.2144561 289.14670  -30.52631   1710           EP019247
         K23O06G |C2023 07 28.28161 21 27 23.83 -26 26 12.3          20.8 GVEP019807
         K23O06G |C2023 07 28.28454 21 27 24.77 -26 25 56.1          20.6 GVEP019807
         K23O06G |C2023 07 28.28748 21 27 25.74 -26 25 40.3          20.4 GVEP019807
         K23O06G  C2023 07 28.49855321 28 43.344-26 08 02.45         20.77GVEP019F51
         K23O06G  C2023 07 28.49919321 28 43.550-26 07 59.01         20.56GVEP019F51
         K23O06G |C2023 07 29.20284 21 32 55.00 -25 03 52.5          20.6 GVEP019807
         K23O06G |C2023 07 29.20598 21 32 55.98 -25 03 35.9          20.7 GVEP019807
         K23O06G |C2023 07 29.20912 21 32 56.96 -25 03 19.5          20.6 GVEP019807
    
    Observer details:
    247 Roving Observer.  Observers A. Schnabel, D. Ruhela.  Measurer S. Deen.
        0.43-m reflector + CCD.
    807 Cerro Tololo Observatory, La Serena.  Observers T. Linder, R. Holmes, L.
        Horn.  1.00-m f/10.0 astrograph + CCD.
    F51 Pan-STARRS 1, Haleakala.  Observers J. Bulger, T. Lowe, P. Minguez, A.
        Schultz, I. Smith, K. Chambers.  Measurers K. Chambers, T. de Boer, J.
        Bulger, J. Fairlamb, H. Gao, M. Huber, C.-C. Lin, T. Lowe, E. Magnier, P.
        Minguez, Y. Ramanjooloo, A. Schultz, I. Smith, R. Wainscoat, R. Weryk, S.
        Chastel.  1.8-m Ritchey-Chretien + CCD.
    
    Orbital elements:
    2023 OG6                                                 Earth MOID = 0.0870 AU
    Epoch 2023 Sept. 13.0 TT = JDT 2460200.5                Veres                   
    M  16.88895              (2000.0)            P               Q                  
    n   0.31082867     Peri.  339.19627     +0.46364142     +0.88482425             
    a   2.1583507      Node   318.38932     -0.80279393     +0.39751777             
    e   0.4904858      Incl.    3.97835     -0.37491137     +0.24303430             
    P   3.17           H   25.12          G   0.15           U   9                  
    Residuals in seconds of arc
    230727 F51  0.1-  0.3-    230728 247  0.4+  0.6-    230728 F51  0.0   0.1+
    230727 F51  0.1-  0.3-    230728 807  0.1+  0.1-    230729 807  0.1-  0.0
    230727 F51  0.2+  0.3+    230728 807  0.1-  0.2+    230729 807  0.0   0.0
    230727 F51  0.1+  0.1+    230728 807  0.0   0.0     230729 807  0.1+  0.2-
    230728 247  1.1+  0.0     230728 F51  0.0   0.1+
    
    Ephemeris:
    2023 OG6                 a,e,i = 2.16, 0.49, 4                   q = 1.0997
    Date    TT    R. A. (2000) Decl.     Delta      r    Elong.  Phase     V
    2023 07 06    18 14 32.6 -48 38 37   0.1065  1.1124   152.7    24.8    21.6
    ...
    2023 07 21    20 34 03.2 -37 06 14   0.08750 1.0997   161.8    16.7    20.9
    ...
    2023 07 29    21 31 42.4 -25 22 09   0.09147 1.1038   164.5    14.2    20.9
    ...
    2023 08 04    22 01 16.9 -16 59 47   0.1008  1.1119   164.0    14.6    21.2
    2023 08 05    22 05 13.9 -15 44 25   0.1028  1.1136   163.8    14.7    21.2
    2023 08 06    22 08 56.0 -14 31 52   0.1049  1.1155   163.7    14.8    21.3
    ...
    2023 08 12    22 26 38.5 -08 17 40   0.1200  1.1290   163.3    14.9    21.6
    ...
    2023 08 20    22 41 18.5 -02 28 50   0.1453  1.1527   164.6    13.5    22.0
    ...
    2023 09 04    22 54 15.8 +03 04 08   0.2071  1.2129   169.4     8.8    22.7
    
    M. P. C. Staff               (C) Copyright 2023 MPC           M.P.E.C. 2023-P19
    


    Read MPEC 2023-P18 Read MPEC 2023-P20


    MPEC number:

    Enter an MPEC number in one of the following forms:

    • 1997-B01 (the full form)
    • J97B01 (the packed version of the full form)
    • B01 (the abbreviated form)